[Date Prev][Date Next][Thread Prev][Thread Next] - [Date Index][Thread Index][Author Index]

STS-110 Nominal OMS-2 Orbital Data



Below is the nominal OMS-2 State Vector and Keplerian Elements for 
STS-110.  The vector data comes from NASA; the Keplerian Elements 
were computed from the vector.  

This file may be read by VEC2TLE version 9648 to update your 
Keplerian Elements text file.

Vector format = 10117
Satellite Name:         STS-110
Catalog Number:         99110            
Epoch MET:                  0.03005583333
                           0/00:43:16.824 MET
EFG E:                     6442786.949469 ft
    F:                    20364454.071549 ft
    G:                    -3731674.745342 ft
    Edot:                   -14819.097346 ft/s
    Fdot:                     1072.052331 ft/s
    Gdot:                   -19442.227700 ft/s
ndot/2 (drag):              0.00583408733 rev/day^2
nddt/6:                       1.39283E-06 rev/day^3
Bstar:                        7.42628E-05 1/Earth Radii
Elset #:                                1
Rev @ Epoch:                1.53584154129

Launch Scheduled: 2002-APR-04 2212:49 UTC

The following Keplerian elements were computed by VEC2TLE from the
vector, using a 0.5 drag multiplier:

STS-110     
1 99110U          02094.95562296  .00583409  13928-5  74263-4 0    16
2 99110  51.6352  61.5955 0059073 345.3949 207.4974 16.29325064    18

Satellite: STS-110     
Catalog number: 99110
Epoch time:      02094.95562296
Element set:       1
Inclination:       51.6352 deg
RA of node:        61.5955 deg
Eccentricity:    0.0059073
Arg of perigee:   345.3949 deg
Mean anomaly:     207.4974 deg
Mean motion:   16.29325064 rev/day
Decay rate:    5.83409e-03 rev/day^2
Epoch rev:               1
Checksum:              304

VEC2TLE may be downloaded from http://www.orbitessera.com

Ken Ernandes
n2wwd@amsat.org
http://www.orbitessera.com

----
Via the sarex mailing list at AMSAT.ORG courtesy of AMSAT-NA.
To unsubscribe, send "unsubscribe sarex" to Majordomo@amsat.org



AMSAT Top AMSAT Home